Weather History for Rawlins, WY

Change the Weather History Date:

Friday, November 23, 2012

  Actual Average Record
Temperature  
Mean Temperature 30 °F 26 °F  
Max Temperature 46 °F 36 °F 54 °F (2006)
Min Temperature 14 °F 17 °F -12 °F (1952)
Degree Days  
Heating Degree Days 35 39  
Month to date heating degree days 625 765  
Since 1 July heating degree days 1493 1824  
Cooling Degree Days 0 0  
Month to date cooling degree days 0 0  
Year to date cooling degree days 419 186  
Moisture  
Dew Point 12 °F    
Average Humidity 43    
Maximum Humidity 67    
Minimum Humidity 18    
Precipitation  
Precipitation 0.00 in 0.01 in 0.16 in (1967)
Month to date precipitation 0.35 0.44  
Year to date precipitation 4.59 8.71  
Sea Level Pressure  
Sea Level Pressure 30.40 in    
Wind  
Wind Speed 12 mph (SW)    
Max Wind Speed 26 mph    
Max Gust Speed 35 mph    
Visibility 10 miles    
Events      
T = Trace of Precipitation, MM = Missing Value Source: NWS Daily Summary

Daily Weather History Graph

Daily Weather History Graph

Search for Another Location

Airport:

Trip Planner

Search our weather history database for the weather conditions in past years. The results will help you decide how hot, cold, wet, or windy it might be!

Date:

Astronomy

Nov. 23, 2012 Rise Set
Actual Time 7:08 AM MST 4:42 PM MST
Civil Twilight 6:37 AM MST 5:12 PM MST
Nautical Twilight 6:03 AM MST 5:46 PM MST
Astronomical Twilight 5:30 AM MST 6:20 PM MST
Moon 2:01 PM MST (11/23) 2:26 AM MST (11/23)
Length of Visible Light 10h 34m
Length of Day
9h 33m
Waxing Gibbous, 80% of the Moon is Illuminated
Nov 23
Waxing Gibbous
Nov 28
Full
Dec 6
Last Quarter
Dec 13
New
Dec 19
First Quarter

Hourly Weather History & Observations

Time (MST) Temp. Windchill Dew Point Humidity Pressure Visibility Wind Dir Wind Speed Gust Speed Precip Events Conditions
12:53 AM 24.1 °F 13.7 °F 10.9 °F 57% 30.49 in 10.0 mi West 10.4 mph - N/A   Clear
1:53 AM 25.0 °F 14.8 °F 12.0 °F 58% 30.49 in 10.0 mi West 10.4 mph - N/A   Clear
2:53 AM 26.1 °F 14.0 °F 10.9 °F 53% 30.51 in 10.0 mi West 15.0 mph 23.0 mph N/A   Clear
3:53 AM 19.9 °F 12.1 °F 10.0 °F 65% 30.55 in 10.0 mi SSW 5.8 mph - 0.00 in   Clear
4:53 AM 19.0 °F 12.3 °F 10.0 °F 68% 30.56 in 10.0 mi South 4.6 mph - 0.00 in   Clear
5:53 AM 19.0 °F - 9.0 °F 65% 30.56 in 10.0 mi Calm Calm - N/A   Clear
11:53 AM 44.1 °F 36.2 °F 3.9 °F 19% 30.45 in 10.0 mi West 18.4 mph 25.3 mph N/A   Clear
12:53 PM 45.0 °F 38.9 °F 7.0 °F 21% 30.41 in 10.0 mi SW 12.7 mph 23.0 mph N/A   Clear
1:53 PM 45.0 °F 37.1 °F 9.0 °F 23% 30.38 in 10.0 mi SW 19.6 mph 28.8 mph N/A   Clear
2:53 PM 45.0 °F 37.1 °F 12.0 °F 26% 30.35 in 10.0 mi SW 19.6 mph 33.4 mph N/A   Clear
3:53 PM 44.1 °F 35.9 °F 12.9 °F 28% 30.38 in 10.0 mi SW 19.6 mph 28.8 mph N/A   Clear
4:53 PM 39.9 °F 35.1 °F 12.9 °F 33% 30.41 in 10.0 mi SW 6.9 mph - N/A   Clear
5:53 PM 37.9 °F 30.5 °F 15.1 °F 39% 30.40 in 10.0 mi SSW 11.5 mph - N/A   Clear
6:53 PM 39.0 °F 31.4 °F 16.0 °F 39% 30.40 in 10.0 mi SW 12.7 mph 19.6 mph N/A   Clear
7:53 PM 39.9 °F 30.2 °F 17.1 °F 40% 30.34 in 10.0 mi WSW 20.7 mph - N/A   Clear
8:53 PM 41.0 °F 37.1 °F 14.0 °F 33% 30.28 in 10.0 mi SW 5.8 mph - N/A   Clear
9:53 PM 42.1 °F 34.2 °F 14.0 °F 32% 30.25 in 10.0 mi WSW 16.1 mph 24.2 mph N/A   Clear
10:53 PM 41.0 °F 33.5 °F 16.0 °F 36% 30.22 in 10.0 mi WSW 13.8 mph - N/A   Clear
11:53 PM 41.0 °F 32.8 °F 16.0 °F 36% 30.21 in 10.0 mi SW 16.1 mph 20.7 mph N/A   Clear